www.pogodaiklimat.ru

Погода и климат >> Архив погоды >> Канада >> Oshawa


ПОГОДА в Oshawa

  • Прогноз погоды в Oshawa
  • Монитор погоды в Oshawa
  • Климат города

АРХИВ ПОГОДЫ в Oshawa

Время (UTC), дата Ветер
(напр.,м/с)
 
Видим.   Явления Облачность Т
(С)
Тd
(С)
f
(%)
Тe
(С)
Тes
(С)
Комфортность P
(гПа)
Po
(гПа)
Тmin
(С)
Tmax
(С)
R
(мм)
R24
(мм)
S
(см)
12 15.11 В 3 16 км ясно +1.0 -0.3 91 -3 -3 1022.7 1005.3 -1.9 +5.9
15 15.11 ЮВ 4 16 км 10/10 600 м
[]
+6.1 +2.0 75 +3 +3 1020.6 1003.3
18 15.11 ЮВ 5 16 км 3/0
[]
+5.7 +1.0 72 +2 +4 1016.9 999.6 -1.9 +6.3
21 15.11 В 6 16 км 9/0
[]
+5.8 +0.9 71 +1 +1 1013.3 996.1
00 16.11 ЮВ 5 16 км 10/0
[]
+7.0 +2.5 73 +3 +3 1009.6 992.5 -1.7 +7.0
03 16.11 Ю 6 16 км слаб. дождь 10/10 600 м
[]
+6.6 +4.4 86 +2 +2 1006.2 989.3
06 16.11 Ю 6 4800 м слаб. дождь {осадки} 10/10 50 м
[]
+7.2 +6.6 96 +3 +3 1002.6 985.7 -1.7 +7.9 3 5
09 16.11 ЮЗ 6 16 км {осадки} 10/10 600 м
[]
+7.5 +5.2 85 +3 +3 1002.8 985.9
12 16.11 ЮЗ 5 16 км слаб. дождь 10/10 600 м
[]
+5.5 +2.7 82 +1 +1 1004.6 987.7 +5.5 +7.9 2
15 16.11 З 6 16 км {осадки} 10/10 600 м
[]
+5.9 +2.5 79 +1 +1 1005.4 988.5
18 16.11 СЗ 9 16 км слаб. дождь 10/10 600 м
[]
+5.2 +1.7 78 -1 -1 1007.9 990.9 +5.2 +7.7 0.3
21 16.11 СЗ 9 16 км 9/9 600 м
[]
+4.0 -0.3 74 -2 -2 1012.0 994.9
00 17.11 СЗ 6 16 км 10/10 600 м
[]
+1.4 -1.2 83 -5 -5 1016.6 999.4 +1.3 +7.3
03 17.11 СЗ 8 16 км 10/10 600 м
[]
+0.4 -4.0 72 -7 -7 1019.5 1002.2
06 17.11 СЗ 6 16 км 10/10 600 м
[]
-0.9 -5.5 71 -7 -7 1021.4 1004.1 -1.0 +7.7 171
09 17.11 СЗ 6 16 км 10/10 600 м
[]
-1.8 -6.6 70 -8 -8 1023.9 1006.5
12 17.11 С 3 16 км ясно -4.1 -8.1 74 -9 -9 1025.7 1008.2 -4.1 +7.7
15 17.11 СЗ 4 16 км ясно -1.4 -7.2 65 -6 -5 1025.7 1008.2
18 17.11 З 2 16 км ясно +1.6 -7.5 51 -1 +3 1023.2 1005.8 -4.3 +1.6
21 17.11 Ю 4 16 км 10/0
[]
+0.5 -4.4 70 -4 -4 1021.5 1004.1
00 18.11 ЮВ 2 16 км 10/0
[]
0.0 -3.4 78 -3 -3 1018.4 1001.0 -4.3 +1.7
03 18.11 ЮВ 4 16 км 10/0
[]
+2.6 -1.9 72 -2 -2 1015.2 997.9
06 18.11 ЮВ 2 16 км н/о +3.5 -0.5 75 +1 +1 1010.5 993.4 -4.3 +3.6
09 18.11 В 4 16 км 10/0
[]
+4.2 +0.5 77 0 0 1006.8 989.7
12 18.11 В 4 16 км слаб. дождь {осадки} 10/10 600 м
[]
+4.0 +2.6 91 -0 -0 1003.0 986.0 0.0 +3.6 0.8
15 18.11 В 3 4800 м слаб. дождь {осадки} 10/10 200 м
[]
+4.3 +3.7 96 0 0 1000.7 983.8
18 18.11 В 2 2800 м слаб. дождь {осадки} 10/10 50 м
[]
+6.0 +5.7 98 +4 +4 997.9 981.0 -0.7 +6.0 0.3
21 18.11 В 3 2400 м слаб. дождь {осадки} 10/10 50 м
[]
+6.4 +6.1 98 +3 +3 994.2 977.4
00 19.11 В 4 4800 м слаб. дождь {осадки} 10/10 50 м
[]
+7.5 +7.2 98 +4 +4 990.7 974.0 +3.2 +7.6 5
03 19.11 СВ 4 4000 м слаб. дождь {осадки} 10/10 200 м
[]
+7.1 +6.8 98 +3 +3 986.9 970.3
06 19.11 СЗ 9 16 км слаб. дождь {осадки} 10/10 1000 м
[]
+2.7 +1.8 94 -5 -5 987.2 970.5 +2.7 +7.6 6 61
09 19.11 СЗ 5 8000 м слаб. снег н/о +0.4 -1.0 90 -5 -5 992.0 975.2 +0.4 +7.6
12 19.11 СЗ 5 16 км н/о 0.0 -2.7 82 -6 -6 998.2 981.3 0.0 +7.6 0.8
15 19.11 СЗ 4 16 км н/о +1.7 -1.7 78 -3 -3 1001.9 985.0 0.0 +7.1
18 19.11 З 3 6000 м осадки н/о +1.1 -0.8 87 -3 -3 1003.9 986.8 0.0 +2.6 0.2
21 19.11 СЗ 8 16 км {осадки} 10/10 600 м
[]
+1.6 -2.2 76 -5 -5 1005.6 988.5
00 20.11 З 8 16 км 3/0
[]
-1.4 -7.6 63 -9 -9 1008.2 991.0 -1.4 +2.5
03 20.11 З 5 16 км 10/10 1000 м
[]
-1.6 -6.6 69 -8 -8 1010.3 993.1
06 20.11 СЗ 3 6000 м слаб. снег 10/10 600 м
[]
-3.8 -5.8 86 -9 -9 1012.1 994.8 -3.8 +2.6 91
09 20.11 Ю 1 16 км 10/10 600 м
[]
-3.8 -5.8 86 -6 -6 1012.6 995.3
12 20.11 ЮЗ 2 16 км ясно -2.0 -5.7 76 -6 -6 1013.4 996.1 -4.3 +2.6
15 20.11 ЮЗ 7 16 км 10/10 600 м
[]
+0.3 -4.3 71 -6 -6 1014.4 997.1
18 20.11 З 5 16 км 10/10 600 м
[]
+3.0 -2.2 69 -2 -2 1013.5 996.2 -4.3 +3.4
21 20.11 ЮЗ 3 16 км 9/9 600 м
[]
+4.2 -1.1 68 +1 +1 1013.0 995.7
00 21.11 ЮЗ 3 16 км 9/0
[]
+4.7 +1.2 78 +1 +1 1012.4 995.2 -4.3 +4.9
03 21.11 ЮЗ 4 16 км 3/0
[]
+5.1 +0.7 73 +1 +1 1010.8 993.7
06 21.11 ЮЗ 6 16 км ясно +5.3 +0.9 73 0 0 1009.2 992.1 -4.3 +5.4 171
09 21.11 ЮЗ 5 16 км ясно +5.2 +0.4 71 +1 +1 1008.2 991.2
12 21.11 ЮЗ 7 16 км 10/0
[]
+6.2 -0.5 62 +2 +2 1006.2 989.2 +4.7 +5.4
15 21.11 ЮЗ 9 16 км 9/0
[]
+8.0 -0.6 55 +4 +4 1005.8 988.9
18 21.11 Ю 9 16 км ясно +9.3 +1.3 57 +5 +5 1005.3 988.4 +1.9 +9.4
21 21.11 ЮЗ 5 16 км 5/5 1500 м
[]
+8.8 +2.1 63 +6 +6 1006.7 989.8
00 22.11 ЮЗ 5 16 км 10/10 1000 м
[]
+8.8 +1.0 58 +6 +6 1009.1 992.1 +5.0 +10.0
03 22.11 СЗ 6 16 км слаб. дождь 10/10 300 м
[]
+4.8 +2.3 84 -0 -0 1010.7 993.7
06 22.11 З 4 16 км 10/10 1000 м
[]
+2.7 +0.1 83 -2 -2 1013.4 996.3 +2.7 +10.0 161

 

Местоположение метеостанции Oshawa (Канада): широта 43.92 долгота -78.88 высота над уровнем моря 139 м.

В архиве по умолчанию представлена погода в Oshawa за последнюю неделю. Архивные данные за месяц целиком и за предыдущие месяцы, начиная с января 2011 года, Вы можете получить, выбрав интересующий диапазон дат из раскрывающегося списка и нажав кнопку "Ввод!".

Внимание! Время в таблицах - всемирное. Для получения местного времени необходимо прибавить поправку, которая в Oshawa равна -5 ч.

Смотрите также архив погоды в соседних городах и на ближайших метеорологических станциях:

Погода в Toronto Buttonville (Канада) (39 км)
Погода в Buttonville (Канада) (39 км)
Погода в Toronto Aes Hq (Канада) (49 км)
Погода в Toronto City (Канада) (50 км)
Погода в Toronto Island Arpt (Канада) (53 км)
Погода в Peterborough Arpt (Канада) (54 км)
Погода в Cobourg (Канада) (58 км)
Погода в Toronto (Канада) (66 км)
Погода в Peterborough Trent (Канада) (67 км)
Погода в Lagoon City (Канада) (73 км)

Пояснения к столбцам:

Ветер - указаны скорость ветра в м/с - средняя за 10 мин, порывы в срок и между сроками (в фигурных скобках) и направление, откуда дует ветер: С - северный, СВ - северо-восточный, В - восточный, ЮВ - юго-восточный, Ю - южный, ЮЗ - юго-западный, З - западный, СЗ - северо-западный.
Видимость - горизонтальная дальность видимости в метрах или километрах. При видимости от 1 до 10 км при отсутствии осадков обычно наблюдается дымка, при ухудшении видимости до 1 км и менее - туман. В сухую погоду видимость может ухудшаться дымом, пылью или мглою.
Явления - указаны атмосферные явления, наблюдавшиеся в срок или в последний час перед сроком; фигурными скобками обозначены явления, наблюдавшиеся между сроками (за 1-3 часа до срока); квадратными скобками обозначены град или гололедные отложения с указанием их диаметра в мм.
Облачность - указаны через наклонную черту общая и нижняя облачность в баллах и высота нижней границы облаков в метрах; квадратными скобками обозначены формы облаков: Ci - перистые, Cs - перисто-слоистые, Cc - перисто-кучевые, Ac - высококучевые, As - высокослоистые, Sc - слоисто-кучевые, Ns - слоисто-дождевые, Cu - кучевые, Cb - кучево-дождевые. Подробнее классификацию облаков см. в Атласе облаков (PDF).
T - Температура воздуха - температура, измеренная на высоте 2 м над землей.
Td - Температура точки росы - температура, при понижении до которой содержащийся в воздухе водяной пар достигнет насыщения.
f - Относительная влажность воздуха - влажноcть воздуха, измеренная на высоте 2 м над землей.
Te - Эффективная температура - температура, которую ощущает одетый по сезону человек в тени. Характеристика душности погоды. При расчете учитывается влияние влажности воздуха и скорости ветра на теплоощущения человека.
Tes - Эффективная температура на солнце - температура, которую ощущает человек, с поправкой на солнечный нагрев. Характеристика знойности погоды. Зависит от высоты солнца над горизонтом, облачности и скорости ветра. Ночью, в пасмурную погоду, а также при ветре 12 м/с и более поправка равна нулю.
P - Атмосферное давление - приведенное к уровню моря атмосферное давление.
Po - Атмосферное давление - измеренное на уровне метеостанции атмосферное давление.
Tmin - Минимальная температура - минимум температуры воздуха на высоте 2 м над землей.
Tmax - Максимальная температура - максимум температуры воздуха на высоте 2 м над землей.
R - Количество осадков - Количество выпавших осадков за период времени, мм. При наведении курсора мыши на число - период времени, за который выпало указанное количество осадков.
R24 - Количество осадков - Количество выпавших осадков за 24 часа, мм.
S - Снежный покров - Высота снежного покрова, см. При наведении курсора мыши на число - состояние снежного покрова и степень покрытия местности в баллах.